DW9004 Weather Reports


Display with metric or nautical units.
time (UTC)temp
F
wind
direction
speed
MPH
gust
MPH
rain 1hr
in
rain 24hr
in
rain mn
in
humidity
%
barometer
mb
20260510161537 64 227 0.0 2.0 0.00 0.00 0.00 51 1011.0
20260510160032 64 227 0.0 2.0 0.00 0.00 0.00 51 1011.1
20260510154532 64 244 0.0 3.0 0.00 0.00 0.00 49 1011.1
20260510153023 65 230 1.0 6.0 0.00 0.00 0.00 49 1011.1
20260510151519 63 244 0.0 1.0 0.00 0.00 0.00 54 1011.1
20260510150058 61 112 0.0 1.0 0.00 0.00 0.00 60 1011.1
20260510144609 57 65 0.0 2.0 0.00 0.00 0.00 67 1011.2
20260510143037 54 351 0.0 2.0 0.00 0.00 0.00 73 1011.3
20260510141534 53 313 0.0 0.0 0.00 0.00 0.00 76 1011.3
20260510140028 51 313 0.0 0.0 0.00 0.00 0.00 77 1011.1
20260510134524 49 313 0.0 0.0 0.00 0.00 0.00 77 1011.3
20260510133022 48 313 0.0 0.0 0.00 0.00 0.00 77 1011.1
20260510131519 164 27 0.0 0.0 0.00 0.00 0.00 100 1011.0
20260510130016 47 26 0.0 0.0 0.00 0.00 0.00 75 1010.9
20260510124508 48 280 0.0 1.0 0.00 0.00 0.00 78 1010.8
20260510123051 49 280 0.0 1.0 0.00 0.00 0.00 76 1010.7
20260510120042 49 280 0.0 1.0 0.00 0.00 0.00 78 1010.8
20260510114539 49 280 0.0 0.0 0.00 0.00 0.00 76 1010.9
20260510113036 50 280 0.0 1.0 0.00 0.00 0.00 74 1010.9
20260510111532 49 280 0.0 1.0 0.00 0.00 0.00 78 1010.8
20260510110028 49 280 0.0 1.0 0.00 0.00 0.00 78 1010.9
20260510104521 49 280 1.0 3.0 0.00 0.00 0.00 79 1011.0
20260510103059 49 280 1.0 3.0 0.00 0.00 0.00 76 1011.0
20260510101555 50 280 1.0 3.0 0.00 0.00 0.00 73 1011.0
20260510100038 51 280 0.0 3.0 0.00 0.00 0.00 71 1011.1
20260510094539 50 280 2.0 4.0 0.00 0.00 0.00 74 1011.0
20260510093030 50 277 2.0 4.0 0.00 0.00 0.00 72 1011.2
20260510091528 52 273 1.0 4.0 0.00 0.00 0.00 69 1011.4
20260510090021 54 273 0.0 1.0 0.00 0.00 0.00 63 1011.5
20260510084517 54 273 0.0 1.0 0.00 0.00 0.00 62 1011.5
20260510083012 53 273 0.0 1.0 0.00 0.00 0.00 65 1011.5
20260510081507 54 273 1.0 2.0 0.00 0.00 0.00 63 1011.6
20260510080051 55 273 0.0 1.0 0.00 0.00 0.00 60 1011.8
20260510074549 56 273 1.0 2.0 0.00 0.00 0.00 59 1011.9
20260510073044 56 273 0.0 2.0 0.00 0.00 0.00 58 1011.8
20260510071539 56 273 1.0 2.0 0.00 0.00 0.00 58 1011.9
20260510070035 -90 343 0.0 1.0 0.00 0.00 0.00 1 1011.7
20260510064532 -90 358 0.0 1.0 0.00 0.00 0.00 1 1011.7
20260510063028 69 358 0.0 1.0 0.00 0.00 0.00 23 1011.7
20260510061530 58 358 0.0 0.0 0.00 0.00 0.00 51 1011.6
20260510060041 58 355 0.0 1.0 0.00 0.00 0.00 53 1011.5
20260510054522 59 355 0.0 1.0 0.00 0.00 0.00 53 1011.5
20260510053008 59 355 0.0 1.0 0.00 0.00 0.00 53 1011.7
20260510051506 60 355 0.0 1.0 0.00 0.00 0.00 51 1011.8
20260510050104 60 355 0.0 1.0 0.00 0.00 0.00 50 1011.8
20260510044504 60 355 0.0 1.0 0.00 0.00 0.00 50 1011.8
20260510043145 61 355 0.0 1.0 0.00 0.00 0.00 49 1011.9
20260510041558 62 358 0.0 2.0 0.00 0.00 0.00 47 1012.0
20260510040057 62 351 0.0 1.0 0.00 0.00 0.00 47 1012.0
20260510034556 63 351 0.0 2.0 0.00 0.00 0.00 48 1011.8
20260510033056 63 8 0.0 0.0 0.00 0.00 0.00 47 1011.8
20260510031604 66 340 0.0 1.0 0.00 0.00 0.00 44 1011.8
20260510030031 68 340 0.0 2.0 0.00 0.00 0.00 40 1011.8
20260510024532 69 355 1.0 2.0 0.00 0.00 0.00 39 1011.7
20260510023041 70 43 0.0 1.0 0.00 0.00 0.00 36 1011.7
20260510021521 71 43 0.0 1.0 0.00 0.00 0.00 36 1011.8
20260510020017 72 44 0.0 2.0 0.00 0.00 0.00 34 1011.9
20260510014515 74 86 0.0 1.0 0.00 0.00 0.00 34 1011.9
20260510013013 74 85 0.0 1.0 0.00 0.00 0.00 33 1012.1
20260510011609 76 358 0.0 2.0 0.00 0.00 0.00 32 1012.2
20260510010150 76 69 0.0 3.0 0.00 0.00 0.00 31 1012.2
20260510004550 77 52 0.0 6.0 0.00 0.00 0.00 31 1012.4
20260510003047 79 94 0.0 3.0 0.00 0.00 0.00 29 1012.4
20260510001544 79 110 0.0 6.0 0.00 0.00 0.00 28 1012.6
20260510000048 79 88 1.0 8.0 0.00 0.00 0.00 27 1012.6
20260509234541 79 73 1.0 5.0 0.00 0.00 0.00 29 1012.7
20260509233040 78 67 3.0 8.0 0.00 0.00 0.00 29 1012.8
20260509231528 80 114 1.0 4.0 0.00 0.00 0.00 26 1012.9
20260509230024 78 94 2.0 5.0 0.00 0.00 0.00 28 1013.1
20260509224631 78 197 1.0 7.0 0.00 0.00 0.00 29 1013.3
20260509223016 78 92 1.0 5.0 0.00 0.00 0.00 28 1013.5
20260509221511 78 32 0.0 5.0 0.00 0.00 0.00 29 1013.8
20260509220007 78 97 1.0 8.0 0.00 0.00 0.00 28 1013.9
20260509214502 79 127 2.0 6.0 0.00 0.00 0.00 29 1014.2
20260509213116 77 163 2.0 6.0 0.00 0.00 0.00 30 1014.3
20260509211605 77 64 1.0 8.0 0.00 0.00 0.00 32 1014.3
20260509210034 77 161 3.0 8.0 0.00 0.00 0.00 32 1014.5
20260509204516 77 85 3.0 9.0 0.00 0.00 0.00 32 1014.7
20260509203031 77 40 0.0 7.0 0.00 0.00 0.00 32 1014.8
20260509201508 77 92 3.0 8.0 0.00 0.00 0.00 32 1015.0
20260509200004 75 106 3.0 7.0 0.00 0.00 0.00 34 1015.1
20260509194601 76 88 1.0 5.0 0.00 0.00 0.00 35 1015.4
20260509193057 74 110 3.0 7.0 0.00 0.00 0.00 34 1015.6
20260509191552 74 159 3.0 5.0 0.00 0.00 0.00 35 1015.7
20260509190052 74 24 2.0 6.0 0.00 0.00 0.00 35 1015.9
20260509184530 73 79 5.0 8.0 0.00 0.00 0.00 35 1016.0
20260509183027 75 322 0.0 3.0 0.00 0.00 0.00 36 1016.2
20260509181522 73 22 0.0 4.0 0.00 0.00 0.00 37 1016.4
20260509180018 71 91 1.0 8.0 0.00 0.00 0.00 39 1016.5
20260509174514 72 36 1.0 3.0 0.00 0.00 0.00 39 1016.7
20260509173009 73 68 0.0 3.0 0.00 0.00 0.00 37 1016.8
20260509171504 72 163 0.0 2.0 0.00 0.00 0.00 39 1017.0
20260509170100 71 87 0.0 3.0 0.00 0.00 0.00 38 1016.9
20260509164544 71 128 0.0 4.0 0.00 0.00 0.00 39 1016.9
20260509163142 69 206 1.0 4.0 0.00 0.00 0.00 40 1016.9